| time (UTC) | temp F | wind direction | speed MPH | gust MPH | rain 1hr in | rain 24hr in | rain mn in | humidity % | barometer mb |
| 20260507031428 | 54 | 290 | 1.0 | 4.0 | 0.00 | 0.00 | 0.00 | 93 | 1020.0 |
| 20260507030423 | 55 | 281 | 2.0 | 6.0 | 0.00 | 0.00 | 0.00 | 93 | 1020.2 |
| 20260507025416 | 56 | 322 | 1.0 | 4.0 | 0.00 | 0.00 | 0.00 | 91 | 1020.1 |
| 20260507024448 | 57 | 295 | 0.0 | 4.0 | 0.00 | 0.00 | 0.00 | 89 | 1020.0 |
| 20260507023426 | 58 | 293 | 0.0 | 5.0 | 0.00 | 0.00 | 0.00 | 88 | 1019.9 |
| 20260507022420 | 58 | 319 | 1.0 | 8.0 | 0.00 | 0.00 | 0.00 | 88 | 1019.8 |
| 20260507021414 | 59 | 341 | 1.0 | 8.0 | 0.00 | 0.00 | 0.00 | 87 | 1020.0 |
| 20260507020428 | 59 | 267 | 2.0 | 6.0 | 0.00 | 0.00 | 0.00 | 87 | 1019.9 |
| 20260507015423 | 60 | 256 | 2.0 | 9.0 | 0.00 | 0.00 | 0.00 | 86 | 1020.0 |
| 20260507014435 | 60 | 298 | 4.0 | 9.0 | 0.00 | 0.00 | 0.00 | 86 | 1020.1 |
| 20260507013427 | 60 | 271 | 5.0 | 13.0 | 0.00 | 0.00 | 0.00 | 85 | 1020.2 |
| 20260507012424 | 61 | 272 | 3.0 | 10.0 | 0.00 | 0.00 | 0.00 | 86 | 1020.2 |
| 20260507011417 | 61 | 301 | 4.0 | 8.0 | 0.00 | 0.00 | 0.00 | 84 | 1020.3 |
| 20260507010431 | 62 | 300 | 2.0 | 7.0 | 0.00 | 0.00 | 0.00 | 84 | 1020.3 |
| 20260507005423 | 62 | 311 | 3.0 | 9.0 | 0.00 | 0.00 | 0.00 | 85 | 1020.4 |
| 20260507004439 | 62 | 262 | 4.0 | 8.0 | 0.00 | 0.00 | 0.00 | 84 | 1020.2 |
| 20260507003431 | 62 | 265 | 5.0 | 9.0 | 0.00 | 0.00 | 0.00 | 84 | 1020.1 |
| 20260507002424 | 62 | 291 | 4.0 | 14.0 | 0.00 | 0.00 | 0.00 | 84 | 1020.1 |
| 20260507001418 | 63 | 187 | 4.0 | 11.0 | 0.00 | 0.00 | 0.00 | 85 | 1020.2 |
| 20260507000436 | 62 | 294 | 5.0 | 11.0 | 0.00 | 0.00 | 0.00 | 84 | 1020.2 |
| 20260506235428 | 63 | 283 | 3.0 | 14.0 | 0.00 | 0.00 | 0.00 | 83 | 1020.3 |
| 20260506234423 | 63 | 299 | 3.0 | 8.0 | 0.00 | 0.00 | 0.00 | 85 | 1020.2 |
| 20260506233422 | 63 | 334 | 5.0 | 11.0 | 0.00 | 0.00 | 0.00 | 84 | 1020.2 |
| 20260506232415 | 63 | 317 | 5.0 | 11.0 | 0.00 | 0.00 | 0.00 | 85 | 1020.2 |
| 20260506231430 | 63 | 321 | 5.0 | 13.0 | 0.00 | 0.00 | 0.00 | 83 | 1020.3 |
| 20260506230424 | 63 | 336 | 7.0 | 14.0 | 0.00 | 0.00 | 0.00 | 83 | 1020.3 |
| 20260506225420 | 63 | 311 | 5.0 | 12.0 | 0.00 | 0.00 | 0.00 | 83 | 1020.4 |
| 20260506224413 | 63 | 291 | 4.0 | 12.0 | 0.00 | 0.00 | 0.00 | 84 | 1020.5 |
| 20260506223449 | 63 | 285 | 6.0 | 14.0 | 0.00 | 0.00 | 0.00 | 84 | 1020.6 |
| 20260506222421 | 63 | 308 | 6.0 | 14.0 | 0.00 | 0.00 | 0.00 | 84 | 1020.9 |
| 20260506221418 | 64 | 315 | 7.0 | 11.0 | 0.00 | 0.00 | 0.00 | 82 | 1020.7 |
| 20260506220412 | 64 | 261 | 7.0 | 13.0 | 0.00 | 0.00 | 0.00 | 83 | 1020.9 |
| 20260506215425 | 64 | 277 | 3.0 | 12.0 | 0.00 | 0.00 | 0.00 | 84 | 1021.0 |
| 20260506214424 | 64 | 305 | 3.0 | 12.0 | 0.00 | 0.00 | 0.00 | 85 | 1021.0 |
| 20260506213418 | 64 | 261 | 5.0 | 14.0 | 0.00 | 0.00 | 0.00 | 84 | 1021.2 |
| 20260506212432 | 64 | 312 | 6.0 | 13.0 | 0.00 | 0.00 | 0.00 | 83 | 1021.1 |
| 20260506211425 | 65 | 259 | 3.0 | 10.0 | 0.00 | 0.00 | 0.00 | 83 | 1021.3 |
| 20260506210423 | 65 | 295 | 4.0 | 12.0 | 0.00 | 0.00 | 0.00 | 84 | 1021.2 |
| 20260506205413 | 65 | 282 | 5.0 | 9.0 | 0.00 | 0.00 | 0.00 | 83 | 1021.3 |
| 20260506204426 | 66 | 288 | 3.0 | 10.0 | 0.00 | 0.00 | 0.00 | 84 | 1021.3 |
| 20260506203425 | 66 | 284 | 3.0 | 9.0 | 0.00 | 0.00 | 0.00 | 83 | 1021.4 |
| 20260506202441 | 65 | 319 | 4.0 | 9.0 | 0.00 | 0.00 | 0.00 | 82 | 1021.3 |
| 20260506201432 | 66 | 298 | 3.0 | 8.0 | 0.00 | 0.00 | 0.00 | 84 | 1021.4 |
| 20260506200423 | 66 | 312 | 2.0 | 10.0 | 0.00 | 0.00 | 0.00 | 84 | 1021.4 |
| 20260506195419 | 65 | 292 | 5.0 | 10.0 | 0.00 | 0.00 | 0.00 | 83 | 1021.6 |
| 20260506194431 | 65 | 282 | 3.0 | 10.0 | 0.00 | 0.00 | 0.00 | 85 | 1021.7 |
| 20260506193445 | 65 | 317 | 5.0 | 11.0 | 0.00 | 0.00 | 0.00 | 83 | 1021.8 |
| 20260506192415 | 66 | 286 | 3.0 | 9.0 | 0.00 | 0.00 | 0.00 | 82 | 1021.8 |
| 20260506105415 | 53 | 309 | 0.0 | 0.0 | 0.00 | 0.00 | 0.00 | 95 | 1020.7 |
| 20260506104430 | 53 | 309 | 0.0 | 1.0 | 0.00 | 0.00 | 0.00 | 95 | 1020.5 |
| 20260506103423 | 53 | 309 | 0.0 | 0.0 | 0.00 | 0.00 | 0.00 | 95 | 1020.4 |
| 20260506102417 | 53 | 309 | 0.0 | 1.0 | 0.00 | 0.00 | 0.00 | 95 | 1020.4 |
| 20260506101413 | 53 | 309 | 0.0 | 0.0 | 0.00 | 0.00 | 0.00 | 95 | 1020.3 |
| 20260506100428 | 53 | 309 | 0.0 | 0.0 | 0.00 | 0.00 | 0.00 | 95 | 1020.4 |
| 20260506095420 | 53 | 309 | 0.0 | 1.0 | 0.00 | 0.00 | 0.00 | 95 | 1020.3 |
| 20260506094417 | 53 | 309 | 0.0 | 0.0 | 0.00 | 0.00 | 0.00 | 95 | 1020.3 |
| 20260506093430 | 53 | 309 | 0.0 | 0.0 | 0.00 | 0.00 | 0.00 | 95 | 1020.3 |
| 20260506092425 | 53 | 309 | 0.0 | 1.0 | 0.00 | 0.00 | 0.00 | 95 | 1020.4 |
| 20260506091418 | 53 | 309 | 0.0 | 1.0 | 0.00 | 0.00 | 0.00 | 95 | 1020.4 |
| 20260506090417 | 53 | 309 | 0.0 | 1.0 | 0.00 | 0.00 | 0.00 | 95 | 1020.5 |
| 20260506085429 | 53 | 309 | 0.0 | 0.0 | 0.00 | 0.00 | 0.00 | 95 | 1020.5 |
| 20260506084422 | 53 | 309 | 0.0 | 0.0 | 0.00 | 0.00 | 0.00 | 95 | 1020.4 |
| 20260506083420 | 53 | 309 | 0.0 | 0.0 | 0.00 | 0.00 | 0.00 | 95 | 1020.5 |
| 20260506082433 | 54 | 309 | 0.0 | 1.0 | 0.00 | 0.00 | 0.00 | 95 | 1020.4 |
| 20260506081426 | 54 | 309 | 0.0 | 0.0 | 0.00 | 0.00 | 0.00 | 95 | 1020.4 |
| 20260506080420 | 53 | 309 | 0.0 | 0.0 | 0.00 | 0.00 | 0.00 | 95 | 1020.4 |
| 20260506073422 | 53 | 296 | 0.0 | 1.0 | 0.00 | 0.03 | 0.00 | 95 | 1020.1 |
| 20260506072421 | 53 | 265 | 0.0 | 2.0 | 0.00 | 0.03 | 0.00 | 95 | 1020.0 |
| 20260506071435 | 53 | 306 | 1.0 | 2.0 | 0.00 | 0.03 | 0.00 | 95 | 1019.8 |
| 20260506070428 | 53 | 305 | 0.0 | 1.0 | 0.00 | 0.03 | 0.00 | 95 | 1019.8 |
| 20260506062424 | 53 | 299 | 0.0 | 1.0 | 0.00 | 0.16 | 0.03 | 95 | 1019.7 |
| 20260506061417 | 54 | 299 | 0.0 | 1.0 | 0.00 | 0.16 | 0.03 | 95 | 1019.6 |
| 20260506060415 | 54 | 299 | 0.0 | 2.0 | 0.00 | 0.16 | 0.03 | 95 | 1019.6 |
| 20260506050418 | 54 | 284 | 0.0 | 1.0 | 0.00 | 0.18 | 0.03 | 95 | 1019.3 |
| 20260506044425 | 54 | 291 | 0.0 | 2.0 | 0.00 | 0.21 | 0.03 | 94 | 1019.0 |
| 20260506043418 | 54 | 277 | 0.0 | 2.0 | 0.00 | 0.21 | 0.03 | 94 | 1018.9 |
| 20260506042431 | 54 | 285 | 0.0 | 2.0 | 0.00 | 0.21 | 0.03 | 94 | 1018.9 |
| 20260506041428 | 54 | 285 | 0.0 | 2.0 | 0.00 | 0.21 | 0.03 | 94 | 1018.7 |
| 20260506040420 | 54 | 298 | 0.0 | 2.0 | 0.00 | 0.21 | 0.03 | 94 | 1018.6 |
| 20260506035431 | 54 | 291 | 0.0 | 2.0 | 0.00 | 0.25 | 0.03 | 94 | 1018.4 |
| 20260506034425 | 54 | 277 | 0.0 | 3.0 | 0.00 | 0.25 | 0.03 | 94 | 1018.4 |
| 20260506033422 | 54 | 296 | 0.0 | 2.0 | 0.00 | 0.25 | 0.03 | 94 | 1018.2 |
| 20260506032417 | 54 | 298 | 1.0 | 4.0 | 0.00 | 0.25 | 0.03 | 94 | 1018.1 |